Location: Trebic
(49.2170°N, 15.8830°E)
Time: 01:03:32
(UTC+01:00)

Transit 4A - Pass Details

Date: 01 November 2020
Orbit: 862 x 982 km, 66.8° (Epoch: 28 November)

Event Time Altitude Azimuth Distance (km) Brightness Sun altitude
Rises 16:56:37 0° 271° (W) 3,646 12.7 -4.2°
Reaches altitude 10° 16:59:48 10° 286° (WNW) 2,717 11.3 -4.7°
Maximum altitude 17:04:38 22° 336° (NNW) 1,996 9.8 -5.5°
Drops below altitude 10° 17:09:32 10° 26° (NNE) 2,745 10.0 -6.2°
Enters shadow 17:12:27 - 40° (NE) 3,590 10.5 -6.7°
